[Date Prev][Date Next][Thread Prev][Thread Next] - [Date Index][Thread Index][Author Index]

2 Line ISS Keps 5-13



ISS
1 25544U 98067A   05132.97377256  .00254190  00000-0  18827-2 0  4610
2 25544 051.6439 081.2424 0005815 117.6498 355.9045 15.71573880370147
----
Via the sarex mailing list at AMSAT.ORG courtesy of AMSAT-NA.
To unsubscribe, send "unsubscribe sarex" to Majordomo@amsat.org



AMSAT Top AMSAT Home